Weather History for Tinker AFB, OK

Change the Weather History Date:

Friday, November 23, 2012

  Actual Average Record
Temperature  
Mean Temperature 47 °F -  
Max Temperature 57 °F 55 °F 77 °F (2005)
Min Temperature 36 °F 36 °F 23 °F (2007)
Degree Days  
Heating Degree Days 18    
Moisture  
Dew Point 25 °F    
Average Humidity 43    
Maximum Humidity 73    
Minimum Humidity 28    
Precipitation  
Precipitation 0.00 in - - ()
Sea Level Pressure  
Sea Level Pressure 30.43 in    
Wind  
Wind Speed 15 mph (North)    
Max Wind Speed 21 mph    
Max Gust Speed 33 mph    
Visibility 10 miles    
Events      
Averages and records for this station are not official NWS values.
T = Trace of Precipitation, MM = Missing Value Source: NWS Daily Summary

Daily Weather History Graph

Daily Weather History Graph

Search for Another Location

Airport:

Trip Planner

Search our weather history database for the weather conditions in past years. The results will help you decide how hot, cold, wet, or windy it might be!

Date:

Astronomy

Nov. 23, 2012 Rise Set
Actual Time 7:13 AM CST 5:18 PM CST
Civil Twilight 6:45 AM CST 5:46 PM CST
Nautical Twilight 6:14 AM CST 6:17 PM CST
Astronomical Twilight 5:44 AM CST 6:47 PM CST
Moon 2:26 PM CST (11/23) 2:41 AM CST (11/23)
Length of Visible Light 11h 00m
Length of Day
10h 05m
Waxing Gibbous, 80% of the Moon is Illuminated
Nov 23
Waxing Gibbous
Nov 28
Full
Dec 6
Last Quarter
Dec 13
New
Dec 19
First Quarter

Hourly Weather History & Observations

Time (CST) Temp. Windchill Dew Point Humidity Pressure Visibility Wind Dir Wind Speed Gust Speed Precip Events Conditions
12:55 AM 57.6 °F - 33.3 °F 40% 30.24 in 10.0 mi NNE 18.4 mph 31.1 mph N/A   Mostly Cloudy
1:55 AM 55.8 °F - 32.0 °F 41% 30.27 in 10.0 mi NNE 16.1 mph 33.4 mph N/A   Overcast
2:55 AM 53.8 °F - 30.6 °F 41% 30.31 in 10.0 mi NNE 20.7 mph 32.2 mph N/A   Overcast
3:55 AM 52.3 °F - 31.6 °F 45% 30.33 in 10.0 mi NNE 17.3 mph 24.2 mph N/A   Overcast
4:55 AM 49.6 °F - 32.9 °F 53% 30.36 in 10.0 mi North 11.5 mph - N/A   Scattered Clouds
5:55 AM 46.2 °F 40.1 °F 33.6 °F 61% 30.38 in 10.0 mi North 13.8 mph - N/A   Clear
6:55 AM 43.9 °F 37.5 °F 35.6 °F 73% 30.43 in 10.0 mi North 12.7 mph - N/A   Clear
7:55 AM 44.6 °F 38.4 °F 31.6 °F 60% 30.46 in 10.0 mi North 12.7 mph - N/A   Clear
8:55 AM 47.5 °F - 27.3 °F 46% 30.48 in 10.0 mi NNE 18.4 mph 24.2 mph N/A   Clear
9:55 AM 49.8 °F - 26.1 °F 40% 30.50 in 10.0 mi NNE 16.1 mph 25.3 mph N/A   Clear
10:55 AM 51.8 °F - 26.1 °F 37% 30.51 in 10.0 mi North 15.0 mph 21.9 mph N/A   Clear
11:55 AM 52.9 °F - 24.8 °F 34% 30.51 in 10.0 mi NNW 18.4 mph 26.5 mph N/A   Clear
12:55 PM 54.1 °F - 23.7 °F 31% 30.49 in 10.0 mi North 16.1 mph 21.9 mph N/A   Clear
1:55 PM 53.8 °F - 21.6 °F 28% 30.47 in 10.0 mi North 18.4 mph 26.5 mph N/A   Clear
2:55 PM 54.0 °F - 21.7 °F 29% 30.46 in 10.0 mi North 17.3 mph 25.3 mph N/A   Clear
3:55 PM 53.1 °F - 21.0 °F 29% 30.46 in 10.0 mi NNW 16.1 mph - N/A   Clear
4:55 PM 50.0 °F - 19.4 °F 30% 30.46 in 10.0 mi North 16.1 mph - N/A   Clear
5:55 PM 45.5 °F 39.9 °F 19.9 °F 36% 30.47 in 10.0 mi North 11.5 mph - N/A   Clear
6:55 PM 42.8 °F 38.0 °F 19.2 °F 39% 30.48 in 10.0 mi NNW 8.1 mph - N/A   Clear
7:55 PM 40.3 °F 34.9 °F 18.7 °F 42% 30.48 in 10.0 mi North 8.1 mph - N/A   Clear
8:55 PM 39.9 °F 35.1 °F 18.9 °F 43% 30.47 in 10.0 mi NNW 6.9 mph - N/A   Clear
9:55 PM 38.8 °F 33.8 °F 18.9 °F 45% 30.47 in 10.0 mi North 6.9 mph - N/A   Clear
10:55 PM 37.2 °F 33.6 °F 18.9 °F 48% 30.47 in 10.0 mi North 4.6 mph - N/A   Clear
11:55 PM 36.9 °F 34.3 °F 19.4 °F 49% 30.46 in 10.0 mi NW 3.5 mph - N/A   Clear